Linz Airport, Austria

11:38 AM CET on January 16, 2018 (GMT +0100)
Linz

Weather History for LOWL - October, 2012

Change the Weather History Date:

Friday, October 5, 2012

  Actual Average Record
Temperature  
Mean Temperature 58 °F -  
Max Temperature 71 °F 53 °F 73 °F (2017)
Min Temperature 44 °F 40 °F 32 °F (2008)
Degree Days  
Heating Degree Days 8    
Growing Degree Days 8 (Base 50)    
Moisture  
Dew Point 49 °F    
Average Humidity 77    
Maximum Humidity 100    
Minimum Humidity 44    
Precipitation  
Precipitation 0.00 in - - ()
Sea Level Pressure  
Sea Level Pressure 30.08 in    
Wind  
Wind Speed 5 mph ()    
Max Wind Speed 12 mph    
Max Gust Speed -    
Visibility 6.2 miles    
Events      
Averages and records for this station are not official NWS values.
T = Trace of Precipitation, MM = Missing Value Source: Averaged Metar Reports

Daily Weather History Graph

Daily Weather History Graph

Search for Another Location

Airport or City:

Trip Planner

Search our weather history database for the weather conditions in past years. The results will help you decide how hot, cold, wet, or windy it might be!

Date:

Astronomy

Oct. 05, 2012 Rise Set
Actual Time 7:08 AM CEST 6:33 PM CEST
Civil Twilight 6:37 AM CEST 7:04 PM CEST
Nautical Twilight 6:01 AM CEST 7:40 PM CEST
Astronomical Twilight 5:24 AM CEST 8:17 PM CEST
Moon 9:20 PM CEST (10/5) 12:24 PM CEST (10/5)
Length of Visible Light 12h 27m
Length of Day
11h 25m
Waning Gibbous, 76% of the Moon is Illuminated
Oct 5
Waning Gibbous
Oct 8
Last Quarter
Oct 15
New
Oct 22
First Quarter
Oct 29
Full

Hourly Weather History & Observations

Time (CEST) Temp. Windchill Dew Point Humidity Pressure Visibility Wind Dir Wind Speed Gust Speed Precip Events Conditions
12:20 AM 53.6 °F - 48.2 °F 82% 30.15 in 6.2 mi WSW 11.5 mph - N/A   Mostly Cloudy
12:50 AM 53.6 °F - 46.4 °F 77% 30.15 in 6.2 mi WSW 10.4 mph - N/A   Partly Cloudy
1:20 AM 53.6 °F - 46.4 °F 77% 30.15 in 6.2 mi WSW 10.4 mph - N/A   Mostly Cloudy
1:50 AM 53.6 °F - 46.4 °F 77% 30.15 in 6.2 mi West 8.1 mph - N/A   Mostly Cloudy
2:00 AM 53 °F - 46 °F 71% 30.17 in 31 mi West 8.9 mph - -  
2:20 AM 51.8 °F - 46.4 °F 82% 30.15 in 6.2 mi WSW 6.9 mph - N/A   Mostly Cloudy
2:50 AM 50.0 °F - 44.6 °F 82% 30.15 in 6.2 mi West 5.8 mph - N/A   Partly Cloudy
3:20 AM 48.2 °F - 44.6 °F 87% 30.15 in 6.2 mi West 3.5 mph - N/A   Partly Cloudy
3:50 AM 48.2 °F - 44.6 °F 87% 30.12 in 6.2 mi Variable 1.2 mph - N/A   Partly Cloudy
4:20 AM 48.2 °F - 44.6 °F 87% 30.12 in 6.2 mi WSW 2.3 mph - N/A   Partly Cloudy
4:50 AM 46.4 °F - 44.6 °F 93% 30.12 in - SSW 2.3 mph - N/A   Clear
5:00 AM 46 °F - 44 °F 92% 30.17 in 28 mi SSW 2.2 mph - -   Scattered Clouds
5:20 AM 44.6 °F - 44.6 °F 100% 30.12 in - Variable 1.2 mph - N/A   Clear
5:50 AM 46.4 °F - 44.6 °F 93% 30.12 in - Variable 1.2 mph - N/A   Clear
6:20 AM 46.4 °F - 44.6 °F 93% 30.12 in - Variable 1.2 mph - N/A   Clear
6:50 AM 44.6 °F 43.1 °F 44.6 °F 100% 30.12 in - NE 3.5 mph - N/A   Clear
7:20 AM 44.6 °F - 42.8 °F 93% 30.12 in - Variable 2.3 mph - N/A   Clear
7:50 AM 46.4 °F - 44.6 °F 93% 30.12 in - SE 2.3 mph - N/A   Clear
8:00 AM 46 °F - 45 °F 94% 30.17 in 47 mi SE 2.2 mph - -   Scattered Clouds
8:20 AM 46.4 °F - 44.6 °F 93% 30.12 in - Variable 2.3 mph - N/A   Clear
8:50 AM 48.2 °F - 46.4 °F 93% 30.12 in - Variable 2.3 mph - N/A   Clear
9:20 AM 50.0 °F - 46.4 °F 87% 30.12 in - ESE 3.5 mph - N/A   Clear
9:50 AM 51.8 °F - 48.2 °F 88% 30.12 in - SE 4.6 mph - N/A   Clear
10:20 AM 53.6 °F - 48.2 °F 82% 30.12 in - ESE 6.9 mph - N/A   Clear
10:50 AM 55.4 °F - 48.2 °F 77% 30.12 in - ESE 5.8 mph - N/A   Clear
11:00 AM 56 °F - 48 °F 68% 30.12 in 47 mi ESE 6.7 mph - -   Scattered Clouds
11:20 AM 57.2 °F - 48.2 °F 72% 30.09 in - East 5.8 mph - N/A   Clear
11:50 AM 59.0 °F - 48.2 °F 67% 30.09 in - ENE 6.9 mph - N/A   Clear
12:20 PM 59.0 °F - 48.2 °F 67% 30.09 in - NE 5.8 mph - N/A   Clear
12:50 PM 62.6 °F - 48.2 °F 59% 30.06 in 6.2 mi East 3.5 mph - N/A   Scattered Clouds
1:20 PM 64.4 °F - 50.0 °F 59% 30.06 in 6.2 mi ESE 3.5 mph - N/A   Scattered Clouds
1:50 PM 64.4 °F - 50.0 °F 59% 30.06 in 6.2 mi Variable 3.5 mph - N/A   Scattered Clouds
2:00 PM 65 °F - 50 °F 47% 30.05 in 47 mi 4.5 mph - -   Scattered Clouds
2:20 PM 66.2 °F - 51.8 °F 60% 30.06 in 6.2 mi Variable 1.2 mph - N/A   Mostly Cloudy
2:50 PM 68.0 °F - 51.8 °F 56% 30.04 in 6.2 mi Variable 2.3 mph - N/A   Mostly Cloudy
3:20 PM 68.0 °F - 51.8 °F 56% 30.04 in 6.2 mi ESE 3.5 mph - N/A   Mostly Cloudy
3:50 PM 68.0 °F - 51.8 °F 56% 30.04 in 6.2 mi ESE 3.5 mph - N/A   Scattered Clouds
4:20 PM 69.8 °F - 51.8 °F 53% 30.01 in 6.2 mi Variable 2.3 mph - N/A   Partly Cloudy
4:50 PM 71.6 °F - 53.6 °F 53% 30.01 in - Variable 1.2 mph - N/A   Clear
5:00 PM 71 °F - 54 °F 44% 29.99 in 47 mi 2.2 mph - -   Scattered Clouds
5:20 PM 69.8 °F - 55.4 °F 60% 30.01 in - Variable 2.3 mph - N/A   Clear
5:50 PM 68.0 °F - 53.6 °F 60% 30.01 in - Variable 2.3 mph - N/A   Clear
6:20 PM 64.4 °F - 55.4 °F 73% 30.01 in - Variable 2.3 mph - N/A   Clear
6:50 PM 64.4 °F - 53.6 °F 68% 30.01 in - ESE 3.5 mph - N/A   Clear
7:20 PM 62.6 °F - 53.6 °F 72% 30.01 in - Variable 1.2 mph - N/A   Clear
7:50 PM 59.0 °F - 51.8 °F 77% 30.04 in - Variable 1.2 mph - N/A   Clear
8:00 PM 60 °F - 52 °F 69% 30.03 in 37 mi 2.2 mph - -   Scattered Clouds
8:20 PM 57.2 °F - 51.8 °F 82% 30.04 in - Variable 2.3 mph - N/A   Clear
8:50 PM 57.2 °F - 51.8 °F 82% 30.04 in - Variable 1.2 mph - N/A   Clear
9:20 PM 55.4 °F - 51.8 °F 88% 30.04 in - Variable 2.3 mph - N/A   Clear
9:50 PM 53.6 °F - 50.0 °F 88% 30.04 in - Variable 2.3 mph - N/A   Clear
10:20 PM 55.4 °F - 51.8 °F 88% 30.04 in - Variable 2.3 mph - N/A   Clear
10:50 PM 55.4 °F - 51.8 °F 88% 30.06 in - South 3.5 mph - N/A   Clear
11:00 PM 55 °F - 51 °F 84% 30.07 in 25 mi South 4.5 mph - -   Scattered Clouds
11:20 PM 53.6 °F - 50.0 °F 88% 30.06 in 6.2 mi Variable 2.3 mph - N/A   Unknown
11:50 PM 53.6 °F - 50.0 °F 88% 30.06 in 6.2 mi WNW 3.5 mph - N/A   Unknown